Regional Weather Roundup
Issued by NWS

Home | Current Version | Previous Version | Text Only | Print | Product List | Glossary Off
Versions: 1 2 3 4 5 6 7 8 9 10 11 12 13 14 15 16 17 18 19 20 21 22 23 24 25 26 27 28 29 30 31 32 33 34 35 36 37 38 39 40 41 42 43 44 45 46 47 48 49 50

000
ASUS43 KDMX 180207
RWRIA

WEATHER ROUNDUP FOR IOWA
NATIONAL WEATHER SERVICE DES MOINES IA
900 PM CDT FRI APR 17 2015

NOTE: "FAIR" INDICATES FEW OR NO CLOUDS BELOW 12,000 FEET WITH NO
SIGNIFICANT WEATHER AND/OR OBSTRUCTIONS TO VISIBILITY.

* - THESE STATIONS ARE NOT NWS STATIONS...THUS NOT UNDER NWS
QUALITY CONTROL.  THEY ALSO DO NOT REPORT WEATHER SUCH
AS PRECIPITATION OR FOG.

IAZ001>003-012>014-020>022-031>034-043>046-180300-
   NORTHWEST IOWA

CITY           SKY/WX    TMP DP  RH WIND       PRES   REMARKS
CARROLL *      CLOUDY    63  48  59 CALM      30.01R HAZE
CHEROKEE *     CLOUDY    64  46  52 NE3       30.02R
DENISON *      CLOUDY    66  52  59 E3        29.99R
LE MARS *      CLOUDY    63  52  67 CALM      30.03R
ORANGE CITY *  CLOUDY    66  46  48 CALM      30.03S
SHELDON *      CLOUDY    64  45  48 NE7       30.02S
SIOUX CITY     CLOUDY    69  44  40 NE7       30.01R
SPENCER        MOCLDY    63  46  54 NE7       30.03R
STORM LAKE *   MOCLDY    66  46  48 NE7       30.04R
$$

IAZ055>058-069>071-079>083-090>094-180300-
   SOUTHWEST IOWA

CITY           SKY/WX    TMP DP  RH WIND       PRES   REMARKS
ATLANTIC *     CLOUDY    68  54  60 CALM      30.00S
AUDUBON *      CLOUDY    64  54  68 CALM      30.03R
CLARINDA *     CLOUDY    68  57  68 NE5       30.00S
COUNCIL BLFS * CLOUDY    68  54  60 E5        30.00S
CRESTON *      CLOUDY    66  54  63 NE8       30.01S
HARLAN  *      CLOUDY    66  54  63 CALM      30.04R
LAMONI         CLOUDY    71  54  54 NE3       29.99S
RED OAK *      CLOUDY    68  55  64 CALM      29.99S
SHENANDOAH *   CLOUDY    68  55  64 N3        29.99S
$$

IAZ047>049-059>061-072>074-084-180300-
   CENTRAL IOWA

CITY           SKY/WX    TMP DP  RH WIND       PRES   REMARKS
AMES           CLOUDY    63  51  65 S5        30.00R
ANKENY *       CLOUDY    66  52  59 CALM      30.01R
CHARITON *     CLOUDY    68  52  56 NE6       30.00S
DES MOINES     CLOUDY    74  50  42 NE3       30.00R
GRINNELL*      PTCLDY    68  50  52 CALM      30.01S
KNOXVILLE *    CLOUDY    70  50  49 CALM      29.99R
MARSHALLTOWN   MOCLDY    70  48  45 CALM      30.00R
PELLA *        CLOUDY    69  54  58 CALM      30.01R
PERRY *          N/A     66  48  52 S6        30.01R
$$

IAZ004>006-015-016-023>025-035-036-180300-
   NORTH CENTRAL IOWA

CITY           SKY/WX    TMP DP  RH WIND       PRES   REMARKS
ALGONA *       MOCLDY    66  46  48 N3        30.03S
CLARION *      CLOUDY    64  45  48 NE7       30.03R
ESTHERVILLE    PTCLDY    62  39  42 N5        30.03R
FORT DODGE *   MOCLDY    66  45  45 N5        30.03R
MASON CITY     MOCLDY    61  48  62 N6        30.04R
FOREST CITY *    N/A     59  46  63 CALM      30.03R
IOWA FALLS *   MOCLDY    68  46  45 CALM      30.03R
$$

IAZ007>011-017>019-026>030-037>042-050>054-066-180300-
   NORTHEAST IOWA

CITY           SKY/WX    TMP DP  RH WIND       PRES   REMARKS
CEDAR RAPIDS   MOCLDY    67  50  54 S3        30.00R
CHARLES CITY * CLOUDY    68  45  42 N5        30.03R
CLINTON *      PTCLDY    66  46  48 CALM      30.03R
DECORAH *      PTCLDY    68  43  40 CALM      30.01R
DUBUQUE        MOCLDY    65  50  58 CALM      30.01R
MONTICELLO *   CLOUDY    66  52  59 CALM      30.00R
OELWEIN *      MOCLDY    66  48  52 NE5       30.02R
WATERLOO       CLOUDY    66  48  52 CALM      30.01R
$$

IAZ064-065-067-068-078-180300-
   EAST CENTRAL IOWA

CITY           SKY/WX    TMP DP  RH WIND       PRES   REMARKS
DAVENPORT      MOCLDY    65  45  48 NW3       30.01R
IOWA CITY      MOCLDY    65  52  62 CALM      30.01R
MT. PLEASANT * CLEAR     69  51  51 N5        30.00R
MUSCATINE *    MOCLDY    66  50  55 CALM      30.00R
QUAD CITIES    MOCLDY    63  49  60 CALM      30.00R
$$

IAZ062-063-075>077-085>089-095>099-180300-
   SOUTHEAST IOWA

CITY           SKY/WX    TMP DP  RH WIND       PRES   REMARKS
BURLINGTON     PTCLDY    68  53  58 CALM      30.00R
FAIRFIELD *    PTCLDY    66  50  55 CALM      30.00R
FORT MADISON * MOCLDY    70  54  56 CALM      30.01S
KEOKUK *       PTCLDY    72  54  53 S6        29.99S
OSKALOOSA *      N/A     67  49  53 SE3       30.01R
CENTERVILLE *    N/A     68  55  64 N3        30.01R
OTTUMWA        PTCLDY    67  50  54 E5        30.00R
WASHINGTON *   PTCLDY    68  52  56 CALM      30.00R
$$

ABBREVIATIONS USED IN REMARKS
   TC - TEMPERATURES IN CELSIUS
  WCI - WIND CHILL INDEX
   HX - HEAT INDEX
  VSB - VISIBILITY
$$



USA.gov is the U.S. government's official web portal to all federal, state and local government web resources and services.